ECMWFFLT1_925_thetae_021.txt.gz
Theta_e
293 293 293 293 292 291 290 289 288 288 288 287 287 287 287 287 287 287 287 287 287 287 287 286 286 286 286 286 286 286 286 286 285 285 285 285 285 285 285 285 285 285 285 285 285 285 286 286 287 289 291 291 292 292 292 292 292 292 292 293 293 293
292 292 292 292 292 291 290 288 288 288 288 288 287 287 287 287 287 287 287 287 287 287 286 286 286 286 286 286 286 286 286 285 285 285 285 285 285 285 285 285 285 285 285 285 285 285 285 285 285 286 287 288 290 291 291 291 291 292 292 292 292 292
292 292 292 292 291 291 290 289 289 289 288 288 288 288 287 287 286 286 287 286 286 286 286 286 286 285 285 285 286 286 286 285 285 284 284 284 284 284 284 284 284 284 285 285 285 285 285 285 285 285 285 286 287 288 289 290 291 291 291 291 291 292
292 291 292 291 290 290 290 290 289 289 289 288 288 288 287 287 286 286 286 286 286 286 286 286 285 285 285 285 285 285 285 285 285 284 284 284 284 284 284 284 284 284 284 284 284 285 285 285 285 285 285 285 285 286 286 288 289 290 290 291 291 291
291 291 291 290 290 291 290 290 289 289 288 288 288 288 287 287 287 286 286 285 285 285 285 285 285 284 284 284 284 284 284 285 284 284 284 284 284 284 284 284 284 284 284 284 284 284 284 284 284 285 285 285 285 285 285 286 286 288 289 290 290 290
290 291 291 290 290 291 290 290 289 289 288 288 288 287 287 287 287 286 286 285 285 285 285 285 284 284 284 284 283 283 283 284 283 283 284 283 284 284 284 284 284 284 284 284 284 284 284 284 284 284 284 284 285 285 285 285 285 286 286 287 288 289
290 290 290 290 290 290 289 290 289 289 289 288 288 288 287 287 287 286 286 286 286 286 286 285 285 285 284 284 283 283 283 283 283 283 283 283 283 283 283 284 284 284 284 283 283 283 283 283 283 283 284 284 284 284 284 285 285 285 285 286 286 287
289 290 290 289 289 289 289 289 289 289 289 288 288 288 287 287 287 287 286 286 286 286 286 286 285 285 284 284 284 283 283 283 282 282 282 282 282 282 282 282 282 282 282 283 283 283 283 283 283 283 283 283 284 284 284 284 284 285 285 285 285 285
289 289 289 289 289 289 289 289 289 289 289 288 288 288 287 287 287 287 286 286 286 286 285 285 285 285 284 284 283 283 283 283 283 282 282 282 282 282 282 281 281 281 281 281 281 282 282 282 282 282 283 283 283 284 284 284 284 284 285 285 285 285
289 288 289 290 289 289 289 289 289 289 289 288 288 288 288 287 287 287 286 286 286 285 285 285 284 284 284 283 283 283 282 282 282 282 282 282 282 282 281 281 281 281 280 280 280 280 280 280 281 281 282 282 283 283 283 284 284 284 284 285 285 285
289 288 290 290 290 290 290 290 290 289 289 288 288 288 288 287 287 287 286 286 285 285 285 284 284 284 283 283 282 282 282 282 282 281 281 281 281 281 281 281 280 280 280 279 279 279 279 279 279 280 280 281 282 282 283 283 283 284 284 285 285 285
287 289 290 290 290 290 290 290 290 289 289 288 288 288 288 287 287 287 286 286 285 285 284 284 283 283 282 282 282 281 281 281 281 281 280 280 280 280 280 280 280 279 279 279 278 278 278 278 278 279 279 280 281 282 283 283 283 284 284 285 285 285
286 288 289 290 290 290 290 290 290 289 289 289 288 288 288 287 287 286 286 285 285 285 284 283 282 282 281 281 281 281 281 281 280 280 279 279 279 279 279 279 279 278 278 278 278 277 277 277 277 277 278 279 281 282 282 283 283 283 284 284 284 284
286 287 289 290 290 290 290 290 289 289 289 289 288 288 287 287 286 286 285 285 285 284 283 282 281 281 280 280 280 280 280 280 280 279 279 279 279 279 279 278 278 277 277 277 277 277 276 276 277 277 277 278 280 280 281 281 282 283 283 283 284 284
287 288 289 290 290 290 290 289 289 289 289 288 288 287 287 286 285 285 284 284 284 283 281 280 280 280 280 280 280 280 279 279 278 278 278 278 278 278 277 277 276 276 276 276 276 276 276 276 276 276 277 278 278 279 280 280 281 281 282 283 283 283
288 289 290 290 290 289 289 289 289 288 288 287 287 286 285 285 284 284 284 284 282 281 279 279 279 279 278 278 278 277 277 276 276 276 276 276 276 275 275 275 275 275 275 275 275 275 275 275 275 275 276 277 278 278 279 279 280 280 281 282 282 282
289 289 289 289 289 289 288 288 288 287 287 286 285 285 284 284 284 284 283 281 280 278 278 278 277 277 277 276 275 275 274 274 274 274 274 274 274 273 273 273 273 273 273 273 273 273 273 273 274 274 275 276 276 277 278 278 278 279 279 280 280 281
290 289 289 288 288 288 287 287 286 286 285 284 284 284 283 283 282 281 280 278 277 277 277 276 276 275 274 273 273 273 272 272 272 272 272 271 271 271 271 271 271 271 271 272 272 272 272 272 272 273 274 274 275 275 276 276 276 277 277 278 278 279
290 289 289 288 287 287 286 285 285 284 284 283 283 283 282 280 279 278 277 276 276 275 275 274 273 272 272 271 271 271 270 270 270 269 269 269 269 269 269 269 269 269 269 269 270 270 270 270 270 271 272 272 273 273 274 274 274 275 275 276 276 277
289 288 288 287 286 285 284 284 284 283 283 282 281 280 279 277 276 275 275 274 274 273 272 271 271 270 270 269 269 269 268 268 268 267 267 267 267 267 267 267 267 267 267 267 268 268 268 268 268 269 269 270 270 271 271 272 273 273 274 274 275 275
288 287 286 286 284 283 283 283 282 282 281 279 278 277 276 275 274 273 273 272 271 270 270 269 269 268 268 268 267 267 266 266 266 266 266 266 266 266 266 266 266 266 266 266 266 266 266 266 266 266 267 268 269 270 270 271 272 272 273 273 274 274
287 286 285 284 282 281 281 281 281 280 278 276 275 274 274 273 272 271 271 270 269 268 268 267 267 267 266 266 266 265 265 265 265 265 265 265 264 264 264 265 265 265 265 265 265 265 265 265 265 265 266 267 268 269 270 270 271 272 272 272 273 273
286 284 282 281 280 280 280 280 278 277 275 274 273 273 272 271 270 269 269 268 267 267 266 266 266 265 265 264 264 264 264 264 264 264 264 264 264 264 264 264 264 264 264 264 264 264 264 264 265 265 266 266 267 268 269 270 270 271 271 272 272 273
283 281 280 279 279 278 278 277 276 275 273 273 272 271 270 269 269 268 267 266 266 265 265 265 265 264 264 263 263 263 263 263 263 263 263 263 263 263 263 263 263 263 263 264 264 264 264 264 264 265 265 266 267 268 268 269 270 270 271 271 272 272
280 279 278 277 277 276 276 275 274 273 272 271 271 270 269 269 268 267 266 266 265 265 265 265 264 263 263 263 263 263 263 263 263 263 263 263 263 263 263 263 263 263 263 263 263 263 263 264 264 264 265 265 266 267 268 269 269 270 270 270 270 270
278 277 276 275 274 274 274 273 272 271 270 270 270 269 268 267 267 266 265 265 265 265 265 264 263 263 263 263 263 263 263 263 263 263 263 263 263 262 263 262 262 263 262 263 263 263 263 263 264 264 265 265 266 267 268 268 269 269 270 270 270 270
276 275 274 273 273 272 272 271 270 269 269 269 268 267 267 266 265 265 264 264 264 264 264 263 263 263 263 263 262 262 262 262 262 262 262 262 262 262 262 262 262 262 262 262 262 263 263 263 264 264 265 265 266 267 268 268 269 269 269 269 270 270
275 274 273 272 272 271 270 270 269 269 269 268 267 266 265 265 264 264 264 263 263 264 263 263 263 262 262 262 262 262 262 262 262 262 262 262 261 261 261 261 262 262 262 262 263 263 263 264 264 265 265 265 266 266 267 267 268 269 269 270 270 270
274 273 272 271 271 270 269 269 268 268 268 267 266 265 265 264 264 263 263 263 263 263 263 262 262 262 262 262 262 262 262 262 262 261 261 261 261 261 261 261 262 262 263 263 263 264 265 265 266 266 266 266 267 267 267 267 267 268 268 268 269 269
273 272 271 270 269 268 268 267 268 268 267 266 266 265 264 263 263 263 262 262 262 262 262 262 262 262 262 261 261 261 261 261 261 261 261 261 261 261 262 262 263 263 264 265 265 266 266 267 267 267 268 268 268 268 268 268 268 268 268 268 268 269
272 271 270 269 268 267 267 267 267 268 267 266 265 264 263 263 263 262 262 262 262 262 262 262 261 261 261 261 261 261 261 261 261 262 262 262 262 263 264 264 265 266 266 267 267 267 268 268 268 268 269 270 270 270 271 271 271 271 270 270 271 271
270 269 268 267 267 266 266 266 267 267 266 265 264 263 263 262 262 262 262 262 262 262 261 261 261 261 261 261 261 261 261 261 262 262 262 263 263 264 265 266 267 267 268 268 268 268 268 268 269 269 270 270 271 271 271 271 272 272 272 273 273 273
268 268 267 266 266 265 265 265 267 267 265 264 264 263 262 262 262 261 261 261 261 261 261 261 261 261 261 261 261 261 261 261 261 261 262 263 264 265 265 266 267 267 268 268 268 268 268 269 269 269 270 270 271 271 272 272 273 273 273 274 274 273
267 266 266 265 265 264 264 265 266 266 264 263 263 262 262 262 261 261 261 261 261 261 260 260 260 260 260 261 261 261 261 260 260 261 261 262 263 264 265 266 266 267 267 268 268 268 268 268 269 269 270 270 271 272 272 273 273 273 274 274 274 274
265 265 264 264 264 263 263 264 266 265 263 263 263 262 262 262 261 261 261 261 260 260 260 260 260 260 260 260 260 260 260 260 260 260 261 262 262 263 264 265 265 266 266 267 267 268 268 268 269 270 270 270 271 272 272 273 273 274 274 274 274 274
264 263 263 263 263 262 262 264 265 264 263 262 262 262 262 262 261 261 261 260 260 260 260 260 260 260 260 260 260 260 260 260 260 261 261 261 262 262 263 263 264 265 265 266 266 267 268 268 269 269 270 271 271 272 273 273 273 273 273 273 274 274
262 263 262 262 262 261 261 263 265 263 262 262 262 262 262 261 261 261 260 260 260 260 260 260 260 260 260 260 260 260 260 261 261 261 261 261 262 262 262 263 263 263 264 265 266 267 267 268 269 269 270 271 271 272 273 273 273 273 272 273 273 273
262 262 262 262 261 260 261 263 264 263 262 262 262 261 261 261 260 260 260 260 260 259 259 259 259 259 260 260 260 260 261 261 261 261 261 261 262 262 262 262 263 263 264 265 265 266 266 267 268 269 270 271 272 272 272 272 272 272 272 273 273 274

ECMWFFLT1_925_thetae_024.txt.gz
Theta_e
292 292 291 291 290 289 289 288 287 287 287 287 287 287 287 287 286 286 286 286 286 286 286 285 285 285 285 285 285 285 285 285 284 284 285 284 285 285 285 285 285 285 285 285 285 285 285 285 285 285 285 285 285 285 285 285 285 285 285 286 287 288
293 292 292 291 290 289 288 288 287 287 287 287 287 286 286 286 286 286 286 286 286 286 286 285 285 285 284 284 284 284 284 284 284 284 284 284 284 284 284 284 285 285 285 285 285 285 285 285 285 285 285 285 285 285 285 285 285 285 285 285 285 285
292 292 292 292 290 289 288 288 288 288 287 287 287 287 286 286 286 286 286 286 286 285 285 285 285 285 285 284 284 284 284 284 283 283 283 283 283 284 284 284 284 284 284 284 285 285 285 285 285 285 284 284 284 284 285 285 285 285 285 285 285 285
292 292 292 291 291 289 289 288 288 288 288 288 287 287 287 286 286 286 286 286 286 285 285 285 285 285 285 284 284 284 284 283 283 283 283 283 283 283 283 283 283 283 283 283 284 284 284 284 284 284 284 284 284 284 284 284 284 284 284 284 284 285
291 291 291 291 291 290 289 289 288 288 288 287 287 287 287 287 286 286 286 286 286 286 285 285 285 285 284 284 284 283 283 283 283 283 283 283 283 283 282 282 282 282 282 282 282 282 282 283 283 283 283 283 283 283 283 283 283 283 283 284 284 284
290 291 291 290 290 290 290 289 288 288 288 287 287 287 287 287 286 286 286 286 286 286 285 285 285 285 284 284 283 283 283 282 282 282 282 282 282 282 282 282 281 281 281 281 281 281 281 281 281 281 281 281 281 281 281 281 282 282 282 283 283 284
289 290 290 290 290 290 290 290 288 288 288 287 287 287 287 287 287 286 286 286 286 286 286 285 285 285 284 283 283 283 282 282 282 282 281 281 281 281 281 281 281 280 280 280 280 280 280 280 280 280 280 280 279 280 280 280 280 281 281 282 283 283
288 290 290 290 290 290 290 290 288 288 288 288 288 287 287 287 287 287 287 286 286 286 286 286 285 285 284 283 283 282 282 282 282 281 281 281 281 280 280 280 280 279 279 279 279 279 279 279 279 279 279 278 278 278 279 279 279 280 280 281 281 282
288 289 290 290 289 289 289 289 288 288 288 288 288 288 287 287 287 287 287 287 286 286 286 286 286 285 284 283 282 282 282 282 281 281 281 280 280 280 280 279 279 279 279 278 279 278 278 278 278 278 277 277 277 278 278 278 279 279 280 280 281 281
287 287 289 289 289 289 289 288 289 288 288 288 288 288 288 287 287 287 287 287 286 286 286 286 285 285 284 283 282 282 281 281 281 280 280 280 279 279 279 278 278 278 278 278 278 278 278 277 277 277 277 277 277 277 278 278 279 279 280 280 280 281
287 286 288 289 289 289 289 289 289 289 289 289 288 288 288 288 287 287 287 286 286 286 285 285 285 285 284 282 281 281 281 280 280 280 279 279 279 278 278 277 277 277 277 277 277 277 277 277 277 277 276 277 277 278 278 279 279 279 279 279 280 280
286 287 288 288 289 289 289 289 289 289 289 289 288 288 288 288 287 287 287 286 286 285 285 285 285 284 283 282 281 280 280 279 279 279 278 278 277 277 277 276 276 276 276 276 276 276 276 276 276 276 276 277 278 278 278 278 278 278 279 279 279 279
286 287 287 288 289 289 289 289 289 289 289 289 289 288 288 288 288 287 286 286 285 285 285 285 285 284 282 281 280 279 279 278 278 277 277 277 276 276 276 275 275 275 275 275 275 275 275 275 275 275 276 277 277 278 278 278 278 278 278 278 278 278
285 286 287 289 290 290 289 290 290 289 290 289 289 288 288 288 287 287 286 286 285 285 284 284 284 283 281 280 279 279 278 277 277 276 276 276 275 275 275 274 274 274 274 273 273 273 273 273 273 274 275 276 276 277 277 277 277 277 277 277 277 277
286 287 289 290 290 290 290 290 290 290 290 289 289 288 288 287 287 286 285 285 284 284 284 283 282 281 280 279 278 277 277 276 276 275 275 275 274 274 274 273 273 272 272 272 271 271 272 272 272 273 273 274 275 275 275 275 275 275 276 276 276 276
288 289 290 290 290 290 290 290 289 289 289 289 288 288 287 287 286 285 284 284 283 283 282 281 280 279 278 277 277 276 275 275 275 274 274 274 273 273 272 272 271 271 270 270 270 270 270 270 270 271 272 272 273 273 274 274 274 274 274 274 275 275
289 289 289 290 290 290 289 289 288 288 288 288 287 287 286 285 285 284 283 283 281 280 280 279 278 277 276 275 275 274 274 274 273 273 272 272 271 271 270 270 269 269 268 268 268 268 268 268 268 269 270 270 271 272 272 272 272 272 272 272 272 272
290 290 290 290 289 289 288 288 288 287 287 287 286 286 285 284 284 283 282 280 279 278 278 277 276 275 274 274 273 273 273 272 271 270 270 270 270 269 269 268 268 267 267 267 267 266 266 266 267 267 268 269 270 270 270 270 270 270 270 270 270 270
290 290 290 289 289 288 288 287 287 287 286 285 285 284 284 283 282 281 279 278 277 276 276 275 274 273 273 272 272 271 271 270 269 269 268 268 268 267 267 266 266 266 266 265 265 265 265 265 265 266 267 268 269 269 269 269 269 269 269 269 269 270
290 290 289 288 288 287 286 286 286 285 285 284 283 283 282 281 279 278 277 276 275 275 274 273 272 272 272 271 271 270 269 268 268 268 267 266 266 266 265 265 265 265 264 264 264 264 264 265 265 265 266 267 267 268 268 268 268 268 269 269 269 269
289 288 288 287 286 285 284 284 284 283 283 282 282 281 279 278 277 276 275 275 274 273 272 272 271 271 271 270 269 268 267 267 267 267 266 265 265 264 264 264 264 264 264 264 264 264 264 264 264 264 265 266 267 268 268 268 268 269 269 269 269 269
288 287 286 285 284 283 282 282 282 282 281 280 279 278 277 275 275 274 274 273 272 271 271 271 271 270 270 269 268 267 266 266 266 266 265 264 264 264 263 263 263 263 263 263 263 263 263 263 263 263 264 265 267 267 268 268 268 268 268 268 269 269
286 285 284 283 282 281 280 280 280 280 279 278 277 276 275 274 273 273 272 272 271 270 270 270 269 269 268 267 267 266 265 265 265 265 264 264 263 263 263 263 263 263 263 263 263 263 263 263 263 263 264 265 266 267 268 268 268 268 269 269 269 269
284 283 282 281 280 279 279 279 279 278 277 276 275 274 273 272 272 272 271 271 270 269 269 269 268 267 267 266 265 265 265 265 265 264 264 263 263 262 262 262 262 262 262 262 262 262 263 263 263 263 264 265 266 267 268 269 269 269 269 269 270 270
282 281 280 279 279 278 278 278 277 276 276 275 274 273 272 271 271 271 270 269 269 269 269 268 267 266 265 265 264 264 264 264 264 263 263 263 262 262 262 262 262 262 262 262 262 262 263 263 263 263 264 265 266 267 268 269 269 270 270 270 270 270
281 280 279 278 278 277 277 276 276 275 275 274 272 271 270 270 270 270 269 268 268 268 268 266 265 265 264 264 264 263 263 263 263 263 262 262 262 262 261 261 262 261 261 262 262 262 263 263 263 264 264 265 266 267 268 269 270 270 271 271 271 271
281 279 277 277 276 276 275 275 274 274 272 271 270 270 269 269 269 268 268 267 267 267 266 265 264 264 264 263 263 263 263 263 262 262 262 262 261 261 261 261 261 261 261 262 262 262 263 264 264 265 265 266 266 267 268 269 270 270 271 271 271 271
279 277 276 275 275 274 274 273 272 272 271 270 270 269 269 268 268 267 267 267 266 266 265 264 264 263 263 263 263 262 262 262 262 262 262 261 261 261 261 261 261 261 262 262 262 263 264 264 265 266 266 267 267 267 268 269 269 270 270 271 271 271
277 276 275 274 273 272 271 271 270 270 270 269 269 268 268 267 267 266 266 266 265 265 264 263 263 263 262 262 262 262 262 262 262 261 261 261 261 261 261 261 262 262 263 263 263 264 265 266 267 267 268 268 268 268 268 269 269 269 270 270 270 270
276 275 274 273 272 271 270 270 269 269 269 269 268 267 267 266 266 265 265 265 264 264 263 263 262 262 262 262 262 262 262 262 262 261 261 261 261 261 262 262 263 263 264 265 265 266 267 268 268 268 268 269 269 269 270 270 270 270 270 270 270 270
275 274 273 271 271 269 269 269 269 269 269 268 267 266 266 265 265 264 264 264 263 263 262 262 262 262 261 261 261 261 261 262 261 261 262 262 262 263 264 265 266 266 266 267 267 268 268 269 269 269 269 270 271 271 271 272 272 272 272 272 273 273
273 272 271 270 269 268 268 269 269 269 268 267 266 265 265 265 264 263 263 263 263 262 262 261 261 261 261 261 261 261 261 261 262 262 262 263 264 265 266 266 267 267 268 268 269 269 269 269 269 269 270 271 271 271 272 272 273 273 273 274 274 274
271 270 269 268 268 267 267 268 269 268 267 266 266 265 265 264 263 262 262 262 262 261 261 261 261 261 261 260 260 260 260 260 261 263 263 263 263 264 266 267 267 267 267 268 268 268 268 269 269 269 270 271 271 271 272 272 273 273 274 274 274 274
270 269 268 267 267 267 267 268 268 267 266 266 265 264 264 263 262 262 262 261 261 261 261 261 260 260 260 260 260 260 260 260 260 262 265 265 265 264 264 265 266 266 267 267 267 268 268 268 269 269 270 271 271 271 272 272 273 273 274 274 274 274
268 268 267 267 266 266 267 268 268 267 265 265 265 264 263 263 262 261 261 261 261 260 260 260 260 260 260 260 260 259 260 260 259 260 262 264 266 266 267 266 265 265 265 266 266 267 267 268 268 269 269 270 270 271 272 272 272 272 273 273 273 272
267 266 266 266 266 265 266 267 267 266 265 264 264 263 263 262 262 261 261 261 260 260 260 260 260 260 259 259 259 259 259 260 260 260 260 261 262 264 267 268 267 266 264 264 265 266 266 267 268 268 269 269 270 271 271 271 270 270 270 271 271 271
266 266 265 265 265 265 265 267 267 265 264 264 263 263 262 262 261 261 261 261 261 260 260 260 259 259 259 259 259 259 259 259 260 260 260 260 260 260 261 263 264 264 263 263 264 265 265 266 267 267 268 269 269 269 269 268 267 267 268 268 269 269
265 265 265 264 264 264 265 266 266 264 263 263 262 262 262 262 261 261 261 261 261 260 260 260 259 259 259 259 259 259 260 260 260 260 260 260 260 260 260 260 261 262 262 262 263 263 264 265 265 266 268 268 267 267 266 265 265 266 266 266 267 267

ECMWFFLT1_925_thetae_030.txt.gz
Theta_e
289 287 287 287 286 286 286 287 286 286 286 286 286 286 286 286 286 286 286 285 286 285 285 285 285 285 285 285 284 284 285 284 284 284 284 283 283 283 283 283 283 283 283 283 282 282 282 282 282 282 282 282 282 282 282 282 282 283 283 283 282 282
289 288 287 287 287 287 287 287 287 287 286 286 286 286 286 286 286 286 286 286 286 285 285 285 285 285 285 284 284 284 284 284 284 284 284 283 283 283 283 283 283 283 283 282 282 282 282 282 282 282 282 282 282 282 283 283 283 283 283 283 282 282
290 288 287 287 287 287 287 287 287 287 286 286 286 286 286 286 286 286 286 286 286 285 285 285 285 285 284 284 284 284 284 284 284 284 283 283 283 283 283 282 282 282 282 282 282 282 282 282 282 282 282 282 282 282 282 282 282 282 282 282 282 282
290 289 288 288 288 287 287 287 287 287 286 286 286 286 286 286 286 286 286 286 286 286 285 285 285 285 285 284 284 284 284 284 283 283 283 283 282 282 282 282 282 282 281 281 281 281 281 281 281 281 281 281 281 281 281 281 281 280 280 281 281 281
290 290 289 289 289 288 287 287 286 286 286 286 286 286 286 286 286 286 286 286 286 286 286 286 286 285 285 285 285 284 284 283 283 283 283 282 282 282 282 282 281 281 281 281 281 280 280 280 280 280 280 280 279 280 280 279 279 279 279 279 279 279
289 290 290 289 289 288 288 287 286 286 286 286 286 286 286 286 286 286 286 286 286 286 285 285 285 285 285 285 285 284 284 283 283 283 282 282 282 282 282 281 281 281 280 280 280 280 279 279 279 279 279 278 278 278 278 278 278 277 277 277 277 277
289 290 290 290 289 289 288 287 287 287 287 286 286 286 286 286 286 286 286 286 286 285 285 285 285 285 285 285 285 285 285 284 284 283 282 282 282 282 281 281 280 280 280 279 279 279 278 278 278 278 277 277 277 277 276 276 276 277 277 277 277 277
289 289 290 290 290 289 288 287 287 287 287 287 287 287 286 286 286 286 286 286 285 285 285 285 285 285 285 285 285 285 285 285 284 283 282 282 282 282 281 281 281 280 280 279 279 278 278 278 277 277 277 276 276 276 276 276 276 276 276 276 276 276
289 289 289 290 290 290 289 288 287 287 287 287 287 287 287 286 286 286 286 286 285 285 285 285 285 285 285 285 285 285 285 285 284 283 282 282 282 282 282 281 281 280 280 279 279 279 278 278 277 276 276 276 276 276 275 275 275 275 275 275 275 275
288 288 288 289 290 290 290 288 288 288 288 288 287 287 287 286 286 286 286 286 285 285 285 285 285 285 285 285 285 285 285 285 284 283 282 282 282 281 281 281 280 280 280 279 279 278 278 277 277 276 276 275 275 275 275 274 275 274 274 274 274 274
288 287 288 288 289 289 289 289 288 288 288 288 287 287 287 286 286 286 286 286 286 285 285 284 284 284 284 285 285 285 285 285 284 283 282 281 281 281 280 280 280 279 279 279 278 278 277 277 276 275 275 274 274 274 274 274 274 274 274 274 273 273
287 287 288 288 288 288 289 289 289 289 288 288 288 287 287 287 287 286 286 286 286 285 285 284 284 284 285 285 285 285 285 285 284 282 282 281 281 280 280 279 279 279 278 278 278 277 277 276 275 274 274 273 273 273 273 273 273 273 273 273 272 272
287 287 287 287 288 288 288 289 289 289 289 288 288 288 287 287 287 287 287 286 286 285 284 284 284 284 285 285 285 285 284 284 283 282 282 281 280 280 280 279 279 278 278 277 277 277 276 275 275 274 273 273 273 272 273 273 273 272 272 272 272 272
286 286 287 287 287 288 288 289 289 289 289 289 289 289 288 287 287 287 287 286 286 285 284 284 284 284 285 285 285 284 284 284 283 282 281 281 280 280 279 279 278 278 277 277 277 276 276 275 274 273 273 273 272 272 273 273 272 272 272 272 271 271
286 286 287 287 287 288 289 289 289 289 290 290 289 289 288 288 287 287 287 286 286 285 284 284 284 284 284 284 284 284 284 283 282 281 281 280 280 279 279 278 278 277 277 277 276 276 275 275 274 273 273 272 271 271 272 272 272 272 271 271 271 270
286 286 287 288 288 289 289 289 289 290 290 289 289 288 288 287 287 287 286 286 285 284 284 284 284 284 284 284 284 283 283 282 281 280 280 280 279 279 278 278 278 277 277 276 276 275 275 274 273 273 272 271 270 271 272 272 271 271 270 270 269 269
287 287 287 288 289 289 289 289 289 289 289 288 288 287 287 287 286 286 286 285 284 284 284 284 283 283 283 283 283 282 281 280 280 280 279 279 278 278 277 277 277 276 276 275 275 275 274 273 272 272 272 271 270 270 271 271 269 269 269 269 269 269
290 290 290 291 290 290 290 290 289 289 288 288 287 286 286 286 286 286 285 284 284 283 283 283 283 283 283 282 281 280 280 279 279 279 278 278 277 276 276 276 275 275 275 274 274 274 273 273 272 272 271 270 269 269 270 269 268 268 268 268 268 268
292 291 292 291 291 291 291 290 290 289 288 287 286 286 286 285 285 285 284 284 283 283 282 282 282 282 282 280 279 279 279 279 278 278 277 276 276 275 275 275 275 274 274 273 273 272 272 272 272 271 271 269 269 269 269 268 268 268 268 268 268 268
290 290 290 290 290 290 290 290 289 288 287 287 286 285 285 285 285 284 283 283 282 282 282 282 282 281 280 279 279 278 278 278 278 277 276 275 275 275 274 274 274 274 273 273 272 271 271 272 271 271 270 269 269 268 268 268 268 268 268 268 268 269
290 289 289 289 289 289 289 289 289 288 287 286 286 285 284 284 284 283 282 282 281 282 282 281 280 279 278 278 278 278 278 277 277 276 275 274 274 274 274 274 274 274 273 272 272 271 270 271 271 271 270 270 268 268 269 269 268 268 269 269 269 269
289 289 289 289 289 289 289 289 288 287 287 286 285 284 284 284 283 282 282 281 281 281 281 280 279 278 278 278 278 277 277 276 276 275 274 274 273 273 273 273 272 273 273 272 272 271 270 270 271 270 270 269 268 268 269 269 269 269 269 269 269 269
289 289 289 289 289 289 288 288 287 287 286 285 284 284 284 283 282 281 281 281 281 280 279 278 278 278 278 277 277 276 276 275 275 274 273 273 273 272 272 272 271 272 272 272 271 270 269 269 270 270 269 268 268 268 269 269 269 269 269 270 270 271
288 288 289 289 289 288 288 287 287 286 285 285 284 285 284 282 281 281 280 280 279 278 278 277 277 277 277 277 276 276 275 275 274 273 272 272 272 271 271 271 271 271 271 271 270 269 269 268 268 268 268 268 267 268 269 269 270 270 271 271 272 271
288 288 289 288 288 288 287 286 286 285 285 284 284 283 282 281 280 280 279 279 278 277 277 277 277 277 276 276 275 275 274 274 273 272 271 271 271 270 270 270 269 269 269 269 269 268 267 267 267 267 267 267 267 268 269 270 270 271 271 272 272 272
287 288 288 287 287 286 286 285 285 284 284 284 283 281 280 280 279 279 278 278 277 277 277 276 276 276 275 274 274 274 273 272 272 271 271 270 270 269 269 268 267 266 265 266 267 267 266 266 266 266 267 267 267 268 269 270 271 271 271 272 272 272
287 286 286 286 285 285 284 284 284 283 283 282 281 280 279 279 278 278 277 277 277 276 276 275 275 274 274 273 273 272 272 271 271 270 270 269 269 268 267 266 265 264 263 263 264 265 265 265 266 266 267 267 268 269 269 270 270 271 271 272 272 272
285 284 284 284 284 283 283 283 282 282 282 281 280 279 278 278 277 277 276 276 276 275 275 274 274 273 273 272 271 271 270 270 270 269 269 268 268 267 265 264 263 262 262 262 263 264 265 265 266 267 267 268 268 268 269 270 270 271 271 272 272 272
283 282 283 283 283 283 282 282 281 281 280 279 278 278 277 276 276 276 275 275 274 274 273 273 273 272 271 271 270 270 270 269 269 268 267 267 267 265 264 263 262 262 262 262 263 264 266 266 267 268 268 268 269 269 270 271 271 272 272 272 272 272
282 282 282 282 283 282 282 281 280 279 278 278 277 276 276 275 275 275 274 274 273 273 273 272 271 271 270 270 269 269 269 269 268 268 267 267 266 264 263 263 262 262 263 263 264 265 267 267 268 268 269 269 270 270 271 272 272 272 272 272 272 273
282 282 282 282 283 282 281 280 279 278 277 276 276 275 275 275 274 273 273 273 273 272 271 270 270 269 269 269 269 269 268 268 268 267 267 267 266 265 264 264 264 264 265 266 266 267 268 268 269 269 270 270 271 271 271 272 272 272 272 273 273 273
283 282 282 282 282 281 280 279 277 276 276 275 275 275 274 273 273 272 272 272 272 271 270 269 268 268 268 268 268 268 268 268 267 267 266 265 265 265 264 265 266 266 267 268 268 269 269 269 269 269 270 270 270 271 271 272 272 272 272 272 271 270
281 280 280 281 280 279 278 277 276 275 275 274 274 274 273 272 271 271 272 272 271 270 268 268 267 267 267 267 267 267 266 266 267 268 267 266 265 264 265 266 267 267 268 268 269 269 269 268 269 269 269 270 270 271 271 271 271 271 270 269 269 267
279 279 279 279 278 277 277 276 275 274 274 273 273 273 272 271 271 271 271 271 269 268 267 267 266 266 266 266 266 266 265 264 264 266 268 268 267 265 265 265 266 266 267 268 268 268 267 267 268 268 269 269 270 270 270 269 269 268 267 267 266 264
280 279 278 277 277 277 276 275 274 274 273 273 272 272 271 271 271 271 270 269 268 267 266 266 265 265 265 265 265 265 264 262 261 262 263 266 268 268 267 266 265 265 265 266 266 266 266 267 267 268 269 269 269 269 268 267 266 265 265 264 263 262
277 276 276 276 276 275 275 274 273 273 272 272 271 271 271 270 270 270 269 268 267 266 265 265 265 265 264 264 264 263 262 262 261 260 260 260 263 265 267 268 267 265 263 263 264 265 265 266 267 267 268 269 268 267 266 265 265 264 264 263 261 261
275 275 275 275 274 274 273 273 273 271 271 270 270 270 270 269 269 268 267 267 266 265 265 265 264 264 264 264 263 263 262 261 261 260 259 259 259 259 261 264 267 267 265 262 263 264 264 265 266 267 268 267 266 266 265 263 263 263 262 261 261 261
274 273 273 273 272 272 272 272 271 270 269 269 269 269 269 268 268 267 266 266 265 264 264 264 264 264 263 263 263 262 262 261 260 259 259 259 259 258 258 260 264 266 266 265 263 263 264 264 265 267 267 266 264 264 263 261 261 261 260 261 261 261

ECMWFFLT1_925_thetae_033.txt.gz
Theta_e
289 288 287 287 286 286 286 286 286 286 286 286 286 286 286 286 286 286 285 286 285 285 285 285 285 285 285 285 285 284 284 284 284 284 284 284 284 284 284 284 284 284 284 284 283 283 283 283 283 283 283 283 283 283 283 283 283 283 283 283 283 282
289 288 287 287 286 286 286 286 286 286 286 286 286 285 285 285 285 285 285 285 285 285 285 285 285 285 285 285 284 284 284 284 284 284 284 284 284 284 284 284 284 284 284 284 283 283 283 283 283 283 283 283 282 282 282 283 283 283 283 283 283 282
289 288 287 287 286 286 286 286 286 286 286 286 286 286 285 285 285 286 286 285 285 285 285 285 285 285 285 284 284 284 284 284 284 284 284 284 284 284 284 284 284 284 283 283 283 283 283 282 282 282 282 282 282 282 282 282 282 282 282 282 282 282
289 288 287 287 286 286 286 286 286 286 286 286 286 286 286 286 285 286 286 285 285 285 285 285 285 285 285 285 285 285 285 285 285 285 285 284 284 284 284 284 283 283 283 283 282 282 282 282 281 281 281 281 281 281 281 281 281 281 281 281 281 281
290 289 287 286 287 286 286 287 286 286 286 286 286 286 286 286 286 286 286 286 285 285 285 285 285 285 285 285 286 285 286 286 285 285 285 285 284 284 284 283 283 283 282 282 282 281 281 281 281 280 280 280 280 280 280 280 280 280 280 280 279 279
289 288 287 287 287 287 287 287 286 286 286 286 286 286 286 286 286 286 286 286 286 286 286 286 286 286 286 286 286 286 286 286 286 285 285 285 284 284 283 283 282 282 282 281 281 280 280 280 280 280 279 279 279 279 279 279 279 278 278 278 278 277
289 289 288 287 287 287 287 287 287 287 286 286 286 286 286 286 286 286 286 286 286 286 286 286 286 286 286 286 286 286 286 286 286 285 285 284 283 283 283 282 282 281 281 280 280 280 279 279 279 279 279 278 278 278 278 277 277 277 277 276 276 276
288 289 289 288 287 287 287 287 287 286 286 286 286 286 286 286 286 286 286 286 286 286 286 286 286 286 286 285 285 285 285 285 285 285 284 283 283 282 282 282 281 281 281 280 280 280 279 279 279 278 278 278 278 277 277 277 276 276 276 275 275 275
288 288 289 289 288 288 288 287 287 286 286 286 286 286 286 286 286 286 286 286 286 286 286 286 286 286 285 285 285 285 285 285 284 284 283 282 282 282 282 282 281 281 281 280 280 279 279 279 278 278 278 277 277 277 276 276 275 275 275 275 275 275
289 288 289 289 289 289 288 288 287 287 286 286 286 286 286 286 286 286 286 286 286 286 286 286 285 285 285 285 285 284 284 284 284 283 282 282 281 282 282 282 282 281 281 280 279 279 278 278 278 277 277 277 277 276 276 275 275 275 275 275 274 274
289 288 289 289 290 290 289 289 288 287 286 286 286 286 286 286 286 286 286 286 286 286 286 285 285 285 284 284 284 284 284 283 283 282 282 281 282 282 282 282 282 281 280 280 279 279 278 278 277 277 277 276 276 275 275 274 274 274 274 274 274 274
288 288 288 288 289 290 289 289 289 288 287 287 287 287 287 287 286 286 286 286 286 286 286 285 285 284 284 284 284 284 283 283 282 282 282 282 282 282 282 282 281 281 280 280 279 279 278 278 277 277 276 275 275 274 274 274 273 273 273 273 273 273
288 288 288 288 289 289 289 290 290 289 288 287 287 287 287 287 287 286 286 286 286 286 286 285 285 284 284 284 284 283 283 282 282 281 281 281 281 281 281 281 281 281 280 279 279 278 278 277 277 276 275 275 274 274 273 273 273 272 272 272 272 272
288 287 287 288 288 289 289 290 289 288 288 288 288 288 287 287 287 287 286 286 286 286 286 285 285 284 284 284 283 283 282 282 281 281 281 281 281 281 281 281 281 280 280 279 279 278 277 277 276 276 275 274 274 274 273 272 273 272 272 272 272 271
288 288 288 288 289 289 289 289 289 289 290 290 290 288 288 287 287 287 286 286 286 286 286 285 285 284 284 283 283 282 282 281 281 280 280 280 281 281 281 280 280 280 279 279 278 278 277 276 276 275 274 274 274 273 272 272 273 272 272 272 271 270
288 288 289 289 289 290 290 289 289 290 291 291 290 289 288 288 287 287 287 286 286 286 286 285 285 284 284 283 282 282 281 281 280 280 280 280 281 280 280 280 280 279 279 278 278 277 276 276 275 275 274 273 273 273 272 272 272 271 271 270 270 269
288 288 289 290 290 290 289 289 289 289 289 289 289 288 288 288 287 287 287 286 286 286 285 285 284 284 283 282 282 281 281 281 280 280 280 280 280 280 280 279 279 279 278 278 277 276 276 275 275 274 273 273 273 272 271 271 271 270 270 269 269 269
291 291 291 291 290 290 290 290 289 289 288 288 288 288 288 288 287 287 287 286 286 285 285 285 284 283 283 282 281 281 281 280 279 279 280 280 280 279 279 279 279 278 277 277 276 276 275 275 274 273 273 273 272 271 270 270 269 269 269 269 268 268
293 292 292 291 291 290 290 290 289 288 288 288 287 287 287 287 286 287 286 286 286 285 285 284 284 283 282 281 281 281 280 280 279 280 280 280 279 279 279 278 278 277 277 276 275 275 275 274 273 273 272 272 272 271 269 269 269 269 269 269 269 269
292 292 292 291 291 291 291 290 289 289 288 288 287 287 286 286 286 286 286 286 286 285 284 284 283 282 281 281 281 281 280 279 279 279 279 279 279 278 278 277 277 277 276 275 275 274 274 274 273 272 272 272 272 271 269 268 269 269 269 269 269 269
291 291 291 291 291 291 290 290 290 289 289 289 288 287 286 286 287 286 286 286 285 285 284 283 282 281 281 281 281 280 279 279 279 279 278 278 277 277 277 277 276 276 275 275 274 274 273 273 273 272 272 272 272 270 269 269 269 269 269 269 269 269
290 290 290 290 290 290 289 289 289 289 289 288 287 287 287 287 288 287 286 285 284 284 283 281 281 281 281 280 280 279 279 279 278 278 277 277 276 276 276 276 275 275 275 274 274 273 273 273 272 272 271 272 271 269 269 269 269 269 269 269 269 270
290 290 290 290 290 289 289 289 289 288 288 288 287 287 288 288 287 286 285 285 283 282 282 281 280 281 280 280 279 278 278 278 277 277 276 276 275 275 275 275 274 274 274 274 273 273 272 272 272 271 271 271 270 268 269 270 269 269 270 270 271 271
288 289 289 289 289 289 289 289 289 288 288 287 287 288 288 287 287 286 285 284 282 281 281 280 280 280 279 279 278 278 277 276 276 275 275 275 275 274 274 274 274 274 274 273 272 272 272 271 271 270 271 271 269 268 269 270 270 271 271 272 272 272
288 289 289 289 289 289 289 288 288 287 287 287 288 288 287 286 286 285 283 282 281 281 280 280 279 279 278 278 277 276 276 275 275 275 274 274 274 274 273 273 273 273 273 273 272 271 271 271 270 270 270 270 268 268 270 270 271 272 272 272 272 272
288 289 289 289 288 289 288 288 287 287 286 287 287 286 286 285 284 283 282 281 280 280 279 279 278 278 277 277 276 275 275 275 274 274 274 273 273 273 273 273 272 272 272 272 272 271 271 270 269 269 268 268 268 269 270 270 271 272 272 272 272 272
288 288 288 288 288 288 288 287 287 286 287 287 286 286 285 284 283 282 281 280 280 279 279 278 277 277 276 276 275 275 274 274 274 273 273 273 273 272 272 272 271 271 271 271 271 271 270 268 267 267 267 267 268 269 270 270 271 272 272 272 272 272
287 287 287 288 287 287 287 287 286 286 287 287 286 285 284 283 282 282 281 280 279 278 278 277 277 276 276 275 275 274 274 274 273 273 273 272 272 271 271 271 270 270 270 269 270 269 267 266 266 267 267 268 268 269 270 270 271 271 272 272 272 272
284 285 285 286 287 287 286 286 286 286 286 285 285 284 283 282 282 281 280 279 279 278 277 277 276 276 275 275 274 274 273 273 273 272 272 272 271 270 270 270 270 269 268 268 267 266 265 266 266 267 268 268 269 270 271 271 271 271 272 272 272 272
284 284 285 286 287 287 285 285 285 284 284 284 284 283 282 281 281 280 279 279 278 277 277 276 275 275 275 274 274 273 273 272 272 272 271 271 270 270 270 269 268 268 267 266 266 266 266 267 267 268 269 270 270 271 271 271 271 272 272 272 272 272
284 284 284 286 287 286 284 284 284 283 283 283 283 282 281 280 280 279 278 278 277 276 276 275 275 274 274 273 273 272 272 271 271 271 271 270 270 270 269 268 267 267 267 267 266 267 267 268 268 269 270 270 271 271 271 271 272 272 272 271 271 270
284 284 284 286 285 284 283 284 283 282 283 282 281 281 280 280 278 277 277 276 276 275 275 275 274 273 273 272 272 271 271 271 270 270 270 270 269 269 268 267 267 267 268 268 268 268 268 268 269 270 270 270 270 271 271 272 272 271 270 270 269 268
284 283 284 285 284 283 283 282 282 282 282 280 279 279 279 278 277 277 276 276 275 275 275 274 273 272 271 271 270 270 270 270 269 269 269 268 267 267 266 266 267 267 268 268 269 269 268 269 269 269 269 270 270 271 271 271 270 269 269 268 267 265
284 284 285 284 283 282 281 281 281 281 280 278 277 277 277 277 276 276 276 275 275 274 274 273 272 271 270 270 269 269 268 268 268 269 269 268 267 267 266 267 267 267 267 267 268 268 268 268 268 268 269 269 270 270 270 269 269 268 267 266 265 264
284 284 284 283 282 281 280 280 279 279 277 276 275 275 275 275 275 275 275 275 274 274 273 272 271 270 269 269 268 267 267 266 266 266 267 268 268 268 267 267 267 267 266 266 266 267 267 267 267 268 268 269 270 269 269 268 267 266 265 265 264 263
283 282 282 281 280 279 278 278 278 277 275 274 273 273 273 274 274 274 274 273 273 272 271 271 270 269 268 268 267 266 266 266 265 265 264 265 266 267 268 268 267 266 265 265 265 266 266 266 267 267 268 269 269 268 267 267 266 266 265 265 263 262
280 280 279 279 278 277 276 276 276 275 273 273 273 273 273 273 273 272 272 272 271 271 270 269 268 268 267 266 266 265 265 265 265 264 264 263 262 262 264 267 268 267 265 264 264 264 264 265 266 267 268 268 267 266 266 266 266 266 266 265 263 262
278 278 277 276 275 275 274 274 274 274 273 272 272 272 272 272 272 272 271 270 270 269 268 267 267 266 266 265 265 264 264 264 264 263 263 262 261 260 261 264 267 268 267 265 263 263 264 264 265 266 267 267 265 265 265 265 265 265 265 264 263 262